Regional Weather Roundup
Issued by NWS

Home | Current Version | Previous Version | Text Only | Print | Product List | Glossary Off
Versions: 1 2 3 4 5 6 7 8 9 10 11 12 13 14 15 16 17 18 19 20 21 22 23 24 25 26 27 28 29 30 31 32 33 34 35 36 37 38 39 40 41 42 43 44 45 46 47 48 49 50

827
ASUS43 KDMX 300806
RWRIA

WEATHER ROUNDUP FOR IOWA
NATIONAL WEATHER SERVICE DES MOINES IA
300 AM CDT SUN APR 30 2017

NOTE: "FAIR" INDICATES FEW OR NO CLOUDS BELOW 12,000 FEET WITH NO
SIGNIFICANT WEATHER AND/OR OBSTRUCTIONS TO VISIBILITY.

* - THESE STATIONS ARE NOT NWS STATIONS...THUS NOT UNDER NWS
QUALITY CONTROL.  THEY ALSO DO NOT REPORT WEATHER SUCH
AS PRECIPITATION OR FOG.

IAZ001>003-012>014-020>022-031>034-043>046-300900-
   NORTHWEST IOWA

CITY           SKY/WX    TMP DP  RH WIND       PRES   REMARKS
CARROLL *      LGT RAIN  39  37  93 NE22G28   29.94F WCI  29
CHEROKEE *     CLOUDY    42  35  76 NE12G22   29.99F
DENISON *      CLOUDY    37  37 100 NE23G31   29.95F FOG     WCI  26
ORANGE CITY *  LGT RAIN  45  34  65 E20G26    30.00F
SHELDON *      MIX PCPN  45  32  61 NE17G24   30.01F
SIOUX CITY     CLOUDY    43  35  73 NE13      29.98F
SPENCER        LGT RAIN  43  35  73 NE10      30.02F
STORM LAKE *   CLOUDY    39  36  87 NE29G37   29.96F WCI  28
$$

IAZ055>058-069>071-079>083-090>094-300900-
   SOUTHWEST IOWA

CITY           SKY/WX    TMP DP  RH WIND       PRES   REMARKS
ATLANTIC *     MIX PCPN  39  39 100 NE16G23   29.89S WCI  30
AUDUBON *      LGT RAIN  37  36  93 NE16G26   29.92S WCI  28
CLARINDA *       N/A     41  39  93 NE15      29.87S FOG
COUNCIL BLFS * CLOUDY    39  39 100 NE18      29.89S FOG     WCI  30
CRESTON *      CLOUDY    39  39 100 NE23G29   29.86R FOG     WCI  29
HARLAN  *      CLOUDY    39  39 100 NE20      29.94F FOG     WCI  30
LAMONI         CLOUDY    40  39  97 NE17G23   29.83F WCI  31
RED OAK *      LGT RAIN  39  39 100 NE18G28   29.88R WCI  30
SHENANDOAH *   CLOUDY    41  39  93 NE18      29.86S
$$

IAZ047>049-059>061-072>074-084-300900-
   CENTRAL IOWA

CITY           SKY/WX    TMP DP  RH WIND       PRES   REMARKS
AMES           LGT RAIN  39  39 100 NE13G22   29.94R FOG     WCI  31
ANKENY *       CLOUDY    39  37  93 NE10      29.93R WCI  32
BOONE *        LGT RAIN  37  37 100 NE18G24   29.93R WCI  27
CHARITON *     CLOUDY    41  39  93 NE16G25   29.86F FOG
DES MOINES     DRIZZLE   41  38  89 NE14      29.91R
GRINNELL*      CLOUDY    39  38  96 NE21G26   29.89S WCI  29
KNOXVILLE *    CLOUDY    41  39  93 NE9       29.89R
MARSHALLTOWN   CLOUDY    39  38  96 NE21      29.91F WCI  29
NEWTON *       CLOUDY    39  37  93 NE17      29.89R WCI  30
PELLA *        CLOUDY    40  39  97 NE6       29.91R
PERRY *        LGT RAIN  39  38  97 NE15G22   29.94S WCI  31
$$

IAZ004>006-015-016-023>025-035-036-300900-
   NORTH CENTRAL IOWA

CITY           SKY/WX    TMP DP  RH WIND       PRES   REMARKS
ALGONA *       LGT RAIN  41  37  87 NE17G24   30.01F
CLARION *      CLOUDY    37  37 100 NE23G35   29.97F FOG     WCI  26
ESTHERVILLE    CLOUDY    44  32  62 NE16      30.03F
FORT DODGE *   CLOUDY    37  34  87 NE14G20   29.98S WCI  29
MASON CITY     CLOUDY    40  33  76 NE17G29   30.00F WCI  31
FOREST CITY *  DRIZZLE   41  32  70 NE13G21   30.01F
WEBSTER CITY * LGT RAIN  37  36  93 NE21G32   29.93S WCI  27
IOWA FALLS *   CLOUDY    39  36  90 NE18G25   29.95F WCI  29
$$

IAZ007>011-017>019-026>030-037>042-050>054-066-300900-
   NORTHEAST IOWA

CITY           SKY/WX    TMP DP  RH WIND       PRES   REMARKS
CEDAR RAPIDS   CLOUDY    40  40 100 NE21G31   29.87F WCI  30
CHARLES CITY * CLOUDY    41  34  75 NE18G25   29.98F
CLINTON *      CLOUDY    43  41  93 E22G28    29.90F
DECORAH *      CLOUDY    43  30  61 NE12G22   29.99F
DUBUQUE        CLOUDY    39  38  96 NE18G26   29.93F WCI  30
MONTICELLO *   CLOUDY    41  39  93 NE13G23   29.91F
OELWEIN *      CLOUDY    41  37  87 NE18G28   29.94F
WATERLOO       CLOUDY    40  35  83 NE18G26   29.94F WCI  31
$$

IAZ064-065-067-068-078-300900-
   EAST CENTRAL IOWA

CITY           SKY/WX    TMP DP  RH WIND       PRES   REMARKS
DAVENPORT      CLOUDY    43  41  93 NE18      29.89F
IOWA CITY      CLOUDY    43  39  86 NE14G29   29.89F
MT. PLEASANT * CLOUDY    42  42 100 E15       29.87F
MUSCATINE *    CLOUDY    43  41  93 NE15G23   29.87F
QUAD CITIES    CLOUDY    45  41  86 NE16      29.87F
$$

IAZ062-063-075>077-085>089-095>099-300900-
   SOUTHEAST IOWA

CITY           SKY/WX    TMP DP  RH WIND       PRES   REMARKS
BURLINGTON     CLOUDY    43  43 100 E14       29.84F
FAIRFIELD *    CLOUDY    41  41 100 E21G28    29.82S
FORT MADISON * LGT RAIN  43  43 100 NE12G23   29.85F
KEOKUK *       LGT RAIN  43  43 100 E9        29.83F
OSKALOOSA *    CLOUDY    40  39  97 E21G28    29.86R WCI  30
CENTERVILLE *  CLOUDY    41  41 100 NE9G18    29.83R
OTTUMWA        CLOUDY    42  41  96 NE16G24   29.84F
WASHINGTON *   CLOUDY    43  41  93 E21G28    29.85F
$$

ABBREVIATIONS USED IN REMARKS
   TC - TEMPERATURES IN CELSIUS
  WCI - WIND CHILL INDEX
   HX - HEAT INDEX
  VSB - VISIBILITY
$$





USA.gov is the U.S. government's official web portal to all federal, state and local government web resources and services.